sat.trackr.live / text

‹ back to catalog

STARLINK-34657

NORAD 64775 · 2025-147W

PAYLOAD ACTIVE UNKNOWN

§ Identity

Operator
Country
US
Launch date
2025-07-08
Launch site
AFETR
Launch vehicle
Mass (kg)
RCS (m²)

Purposes: comms

External: N2YO · Heavens-Above · Gunter

§ Orbital elements

Epoch: 2026-09-20T22:32:44.727648Z

Period
93.85 min
Inclination
53.1619°
Eccentricity
0.0004555
Mean motion
15.34411102 rev/d
Perigee alt
459.6 km
Apogee alt
465.8 km
Semi-major
6,840.8 km
B*
6.0132e-4
RAAN
51.6978°
Arg perigee
14.5521°
Mean anomaly
345.5612°
Rev number
6,870

§ Raw data

STARLINK-346571 64775U 25147W   26263.93940657  .00020006  00000+0  60132-3 0  99922 64775  53.1619  51.6978 0004555  14.5521 345.5612 15.34411102 68708

JSON: /api/v1/satellites/64775 · /tle

For live sub-satellite position, see the globe view (requires WebGL).

§ Visibility from observer

Set your observer location to see the next 7 days of passes ≥ 10°. The values pass through the URL so the page stays shareable.

No JS? Fill the form by hand. The geolocation button needs JavaScript.